Weather History for Sierra Vista, AZ

Change the Weather History Date:

Saturday, May 5, 2012

  Actual Average Record
Temperature  
Mean Temperature 70 °F -  
Max Temperature 86 °F 80 °F 95 °F (1989)
Min Temperature 55 °F 57 °F 45 °F (1982)
Cooling Degree Days 6    
Growing Degree Days 20 (Base 50)    
Moisture  
Dew Point 15 °F    
Average Humidity 11    
Maximum Humidity 19    
Minimum Humidity 8    
Precipitation  
Precipitation 0.00 in - - ()
Sea Level Pressure  
Sea Level Pressure 29.88 in    
Wind  
Wind Speed 8 mph (SW)    
Max Wind Speed 23 mph    
Max Gust Speed 31 mph    
Visibility 10 miles    
Events      
Averages and records for this station are not official NWS values.
T = Trace of Precipitation, MM = Missing Value Source: NWS Daily Summary

Daily Weather History Graph

Daily Weather History Graph

Search for Another Location

Airport:

Trip Planner

Search our weather history database for the weather conditions in past years. The results will help you decide how hot, cold, wet, or windy it might be!

Date:

Astronomy

May. 05, 2012 Rise Set
Actual Time 5:32 AM MST 7:04 PM MST
Civil Twilight 5:05 AM MST 7:30 PM MST
Nautical Twilight 4:34 AM MST 8:01 PM MST
Astronomical Twilight 4:01 AM MST 8:34 PM MST
Moon 6:59 PM MST (5/5) 4:56 AM MST (5/5)
Length of Visible Light 14h 24m
Length of Day
13h 32m
Full, 100% of the Moon is Illuminated
May 5
Full
May 5
Full
May 12
Last Quarter
May 20
New
May 28
First Quarter

Hourly Weather History & Observations

Time (MST) Temp. Dew Point Humidity Pressure Visibility Wind Dir Wind Speed Gust Speed Precip Events Conditions
12:56 AM 71.1 °F 14.0 °F 11% 29.88 in 10.0 mi Variable 3.5 mph - N/A   Clear
1:56 AM 70.0 °F 15.1 °F 12% 29.88 in 10.0 mi SW 3.5 mph - N/A   Clear
2:56 AM 60.1 °F 12.0 °F 15% 29.90 in 10.0 mi Calm Calm - N/A   Clear
3:56 AM 61.0 °F 12.9 °F 15% 29.89 in 10.0 mi Calm Calm - N/A   Clear
4:56 AM 64.0 °F 12.9 °F 14% 29.88 in 10.0 mi South 3.5 mph - N/A   Clear
5:56 AM 55.9 °F 14.0 °F 19% 29.93 in 10.0 mi Variable 3.5 mph - N/A   Clear
6:56 AM 64.0 °F 15.1 °F 15% 29.93 in 10.0 mi ESE 6.9 mph - N/A   Clear
7:56 AM 70.0 °F 16.0 °F 13% 29.93 in 10.0 mi NE 3.5 mph - N/A   Clear
8:56 AM 77.0 °F 19.0 °F 11% 29.92 in 10.0 mi WSW 11.5 mph 19.6 mph N/A   Clear
9:56 AM 79.0 °F 19.0 °F 11% 29.91 in 10.0 mi WSW 16.1 mph 25.3 mph N/A   Clear
10:56 AM 81.0 °F 19.0 °F 10% 29.91 in 10.0 mi SW 18.4 mph 25.3 mph N/A   Clear
11:28 AM 82.4 °F 19.4 °F 10% 30.09 in 10.0 mi SSW 16.1 mph 23.0 mph N/A   Clear
11:56 AM 82.9 °F 18.0 °F 9% 29.90 in 10.0 mi SSW 13.8 mph 23.0 mph N/A   Clear
12:56 PM 84.0 °F 16.0 °F 8% 29.87 in 10.0 mi SSW 21.9 mph 27.6 mph N/A   Clear
1:56 PM 86.0 °F 17.1 °F 8% 29.86 in 10.0 mi SW 18.4 mph 26.5 mph N/A   Clear
2:56 PM 84.9 °F 16.0 °F 8% 29.86 in 10.0 mi SW 23.0 mph 31.1 mph N/A   Clear
3:56 PM 84.0 °F 16.0 °F 8% 29.84 in 10.0 mi South 20.7 mph 25.3 mph N/A   Clear
4:56 PM 82.0 °F 15.1 °F 8% 29.84 in 10.0 mi WSW 16.1 mph 29.9 mph N/A   Clear
5:56 PM 81.0 °F 15.1 °F 8% 29.86 in 10.0 mi SSW 10.4 mph - N/A   Clear
6:56 PM 77.0 °F 12.9 °F 9% 29.86 in 10.0 mi WSW 12.7 mph - N/A   Clear
7:56 PM 73.4 °F 10.4 °F 9% 29.54 in 10.0 mi SW 10.4 mph - N/A   Clear
8:56 PM 70.0 °F 10.9 °F 10% 29.88 in 10.0 mi SW 6.9 mph - N/A   Clear
9:56 PM 70.0 °F 10.0 °F 10% 29.88 in 10.0 mi WSW 8.1 mph - N/A   Clear
10:56 PM 68.0 °F 10.9 °F 11% 29.88 in 10.0 mi West 10.4 mph - N/A   Clear
11:56 PM 66.0 °F 12.9 °F 13% 29.88 in 10.0 mi West 4.6 mph - N/A   Clear